Moffett Field, CA

6:30 PM PDT on July 25, 2016 (GMT -0700)
Moffett Federal Air Field

Weather History for KNUQ - October, 2011

Change the Weather History Date:

Saturday, October 22, 2011

  Actual Average Record
Temperature  
Mean Temperature 71 °F 63 °F  
Max Temperature 86 °F 72 °F 86 °F (2011)
Min Temperature 55 °F 53 °F 38 °F (1949)
Degree Days  
Heating Degree Days 0    
Month to date heating degree days 17  
Since 1 July heating degree days 27  
Cooling Degree Days 6    
Month to date cooling degree days 62  
Year to date cooling degree days 445  
Growing Degree Days 20 (Base 50)    
Moisture  
Dew Point 54 °F    
Average Humidity 59    
Maximum Humidity 86    
Minimum Humidity 32    
Precipitation  
Precipitation 0.00 in 0.02 in 0.69 in (1973)
Month to date precipitation 1.00 0.35  
Year to date precipitation 10.50 10.19  
Since 1 July precipitation 1.00  
Sea Level Pressure  
Sea Level Pressure 30.07 in    
Wind  
Wind Speed 3 mph (NNW)    
Max Wind Speed 10 mph    
Max Gust Speed 14 mph    
Visibility 10 miles    
Events      
T = Trace of Precipitation, MM = Missing Value Source: NWS Daily Summary

Daily Weather History Graph

Daily Weather History Graph

Search for Another Location

Airport or City:

Trip Planner

Search our weather history database for the weather conditions in past years. The results will help you decide how hot, cold, wet, or windy it might be!

Date:

Astronomy

Oct. 22, 2011 Rise Set
Actual Time 7:22 AM PDT 6:22 PM PDT
Civil Twilight 6:56 AM PDT 6:48 PM PDT
Nautical Twilight 6:25 AM PDT 7:19 PM PDT
Astronomical Twilight 5:55 AM PDT 7:49 PM PDT
Moon 2:32 AM PDT (10/22) 3:38 PM PDT (10/22)
Length of Visible Light 11h 52m
Length of Day
10h 59m
Waning Crescent, 22% of the Moon is Illuminated
Oct 22
Waning Crescent
Oct 26
New
Nov 2
First Quarter
Nov 10
Full
Nov 18
Last Quarter

Hourly Weather History & Observations

Time (PDT) Temp. Heat Index Dew Point Humidity Pressure Visibility Wind Dir Wind Speed Gust Speed Precip Events Conditions
12:56 AM 61.0 °F - 55.0 °F 81% 30.13 in 10.0 mi Calm Calm - N/A   Clear
1:56 AM 60.1 °F - 54.0 °F 80% 30.13 in 10.0 mi Calm Calm - N/A   Clear
2:56 AM 59.0 °F - 53.1 °F 81% 30.12 in 10.0 mi Calm Calm - N/A   Clear
3:56 AM 57.9 °F - 53.1 °F 84% 30.12 in 10.0 mi Calm Calm - N/A   Clear
4:56 AM 55.9 °F - 51.1 °F 84% 30.11 in 10.0 mi Calm Calm - N/A   Clear
5:56 AM 57.0 °F - 52.0 °F 83% 30.12 in 10.0 mi Calm Calm - N/A   Clear
7:56 AM 57.0 °F - 52.0 °F 83% 30.12 in 10.0 mi Calm Calm - N/A   Clear
8:56 AM 62.1 °F - 55.0 °F 78% 30.14 in 10.0 mi Calm Calm - N/A   Clear
9:56 AM 66.9 °F - 55.0 °F 66% 30.14 in 10.0 mi North 3.5 mph - N/A   Clear
10:56 AM 71.1 °F - 59.0 °F 66% 30.13 in 10.0 mi North 4.6 mph - N/A   Clear
11:56 AM 75.0 °F - 57.9 °F 55% 30.12 in 10.0 mi NNE 5.8 mph - N/A   Clear
12:56 PM 78.1 °F - 59.0 °F 52% 30.09 in 10.0 mi North 5.8 mph - N/A   Clear
1:56 PM 79.0 °F - 60.1 °F 52% 30.06 in 10.0 mi NNW 5.8 mph - N/A   Clear
2:56 PM 84.0 °F - 51.1 °F 32% 30.04 in 10.0 mi NW 8.1 mph - N/A   Clear
3:56 PM 84.9 °F - 51.1 °F 31% 30.02 in 10.0 mi NNW 6.9 mph - N/A   Clear
4:56 PM 84.9 °F 83.2 °F 53.1 °F 33% 30.00 in 10.0 mi North 8.1 mph - N/A   Clear
5:56 PM 79.0 °F - 57.0 °F 47% 30.00 in 10.0 mi North 9.2 mph - N/A   Clear
6:56 PM 79.0 °F - 51.1 °F 38% 30.00 in 10.0 mi WNW 3.5 mph - N/A   Clear
7:56 PM 73.9 °F - 53.1 °F 48% 30.00 in 10.0 mi Calm Calm - N/A   Clear
8:56 PM 70.0 °F - 52.0 °F 53% 30.01 in 10.0 mi South 3.5 mph - N/A   Clear
9:56 PM 66.0 °F - 51.1 °F 59% 30.01 in 10.0 mi Calm Calm - N/A   Clear
10:56 PM 66.9 °F - 51.1 °F 57% 30.01 in 10.0 mi Calm Calm - N/A   Clear
11:56 PM 64.0 °F - 51.1 °F 63% 30.00 in 10.0 mi Calm Calm - N/A   Clear